Simultaneous Nadir Overpasses (SNOs) Predictions

Prediction of SNOs between GOES-16 and METOP-B Satellite Orbit:

Table of predicted SNOs for the next 14.0 days since TLE Epoch: 10/26/2018
Index Date Time (GOES-16) GOES-16 Lat,Lon METOP-B Lat,Lon Distance(km) Time Diff (sec)
1 10/28/2018 02:27:03 -0.01, -75.25 0.01, -75.21 5.12 80
2 10/30/2018 14:27:55 0.01, -75.28 -0.09, -74.78 57.02 80
3 11/01/2018 02:46:54 -0.00, -75.29 -0.94, -79.37 465.47 80
4 11/02/2018 02:23:35 -0.00, -75.30 0.19, -74.37 104.98 80
5 11/03/2018 14:42:27 0.00, -75.33 0.79, -78.94 411.87 80
6 11/04/2018 14:24:27 -0.00, -75.34 -0.34, -73.95 159.22 80
7 11/06/2018 02:43:27 0.00, -75.36 -0.69, -78.54 361.68 80
8 11/07/2018 02:20:06 0.00, -75.38 0.38, -73.54 209.70 80
9 11/08/2018 14:38:59 -0.01, -75.42 0.60, -78.11 306.05 80
10 11/09/2018 14:20:59 -0.01, -75.45 -0.53, -73.12 265.65 80




NCC Satellite Simultaneous Nadir Overpasses (SNOs) Prediction Service
